sat.trackr.live / text

‹ back to catalog

STARLINK-37064

NORAD 68157 · 2026-049R

PAYLOAD ACTIVE UNKNOWN

§ Identity

Operator
Country
US
Launch date
2026-03-13
Launch site
AFWTR
Launch vehicle
Mass (kg)
RCS (m²)

Purposes: comms

External: N2YO · Heavens-Above · Gunter

§ Orbital elements

Epoch: 2026-05-25T01:25:53.440320Z

Period
93.91 min
Inclination
97.2846°
Eccentricity
0.0000643
Mean motion
15.33458136 rev/d
Perigee alt
465.1 km
Apogee alt
465.9 km
Semi-major
6,843.6 km
B*
5.3405e-4
RAAN
166.7551°
Arg perigee
156.8254°
Mean anomaly
203.3018°
Rev number
1,135

§ Raw data

STARLINK-370641 68157U 26049R   26145.05964630  .00017212  00000+0  53405-3 0  99912 68157  97.2846 166.7551 0000643 156.8254 203.3018 15.33458136 11356

JSON: /api/v1/satellites/68157 · /tle

For live sub-satellite position, see the globe view (requires WebGL).

§ Visibility from observer

Set your observer location to see the next 7 days of passes ≥ 10°. The values pass through the URL so the page stays shareable.

No JS? Fill the form by hand. The geolocation button needs JavaScript.